Vorticity
5 5 5 5 5 5 5 6 5 3 4 4 5 5 5 7 6 7 9 6 4 -2 6 1 6 12 16 6 6 12 9 4 3 3 2 4 7 12 12 11 9 8 8 9 9
6 6 5 6 6 7 5 6 8 6 5 6 6 4 9 7 7 7 7 9 8 2 4 1 5 16 16 5 5 5 6 4 1 2 2 4 4 4 6 7 8 9 10 11 10
7 7 6 7 7 7 8 7 6 6 5 7 7 8 6 9 7 8 6 9 5 3 7 4 -1 11 26 5 0 -1 12 9 6 3 1 3 3 5 5 6 6 6 8 7 7
7 7 7 8 4 8 9 8 7 8 7 6 6 8 6 10 9 7 7 0 5 3 5 5 3 16 14 4 7 -3 -8 22 2 4 0 -1 1 -3 -0 4 2 1 2 2 1
7 7 6 7 4 7 8 8 7 8 8 8 8 7 10 10 7 8 5 4 4 1 2 5 6 18 9 6 3 5 -5 3 14 6 3 2 3 4 1 -2 2 3 3 3 2
9 7 9 8 5 7 8 8 9 9 7 7 9 7 4 5 6 9 8 2 -3 8 3 12 13 9 10 3 3 1 1 0 3 11 7 3 6 2 6 10 2 1 1 3 3
8 11 10 10 8 5 8 7 8 5 7 3 3 4 2 3 4 4 1 -1 5 11 10 6 11 12 8 5 5 2 2 -1 12 9 16 11 6 7 7 6 11 11 5 1 0
-3 5 4 7 7 7 5 7 0 0 1 -2 0 -0 4 6 3 10 -0 7 14 3 11 -1 13 8 4 2 2 -0 5 6 6 -1 8 5 11 11 9 8 10 10 10 12 14
4 8 8 5 6 3 2 -1 1 0 10 5 8 15 7 6 8 10 10 13 10 6 6 8 16 13 1 2 -0 0 0 6 12 12 10 7 8 8 7 7 8 8 8 9 10
-6 3 1 9 -0 11 7 10 9 18 10 16 8 15 16 14 10 7 12 2 12 11 12 11 6 13 9 7 1 3 7 12 10 16 11 7 8 8 7 8 10 9 8 7 6
5 7 11 -2 1 14 12 5 13 15 7 8 11 4 6 3 16 11 4 12 11 8 3 4 8 11 8 9 11 5 9 8 6 4 8 8 9 9 9 8 7 6 8 8 6
7 6 18 -0 6 11 10 6 4 5 6 8 11 11 9 12 16 11 10 11 8 8 11 8 8 10 7 8 13 15 11 8 8 11 10 9 9 9 8 6 5 6 7 6 5
10 -0 -12 4 7 7 5 3 8 7 3 0 9 8 12 8 9 8 5 3 7 6 4 6 8 11 3 9 7 7 8 8 9 8 9 10 8 6 5 1 5 3 6 6 5
-1 12 7 27 3 6 -2 -2 10 2 8 4 3 8 11 6 6 3 6 7 3 2 8 8 16 14 13 13 11 10 13 10 9 8 5 5 8 7 5 6 4 6 8 8 8
11 3 4 -1 8 6 3 9 10 3 3 10 5 2 11 7 7 4 2 5 11 16 10 7 6 8 10 9 10 8 6 7 7 6 6 5 8 7 6 9 6 4 5 12 16
-6 14 25 7 8 5 13 8 9 15 -2 1 4 10 9 7 11 11 12 11 -0 1 4 4 4 6 6 8 8 6 6 5 4 4 4 7 8 5 6 5 9 12 14 11 11
25 2 16 29 19 10 11 12 19 -15 5 -1 3 7 3 5 3 5 4 -1 -1 3 10 10 9 4 4 7 8 7 7 5 7 8 6 7 7 8 9 9 11 11 13 16 18
27 18 18 23 13 16 17 20 -4 4 16 12 9 10 8 6 6 7 8 9 5 7 10 8 8 4 6 8 5 7 8 8 15 13 11 9 5 4 9 17 14 13 13 15 12
14 23 17 23 16 17 13 4 -8 20 15 12 9 7 4 -0 -1 1 5 2 2 8 8 7 6 6 8 13 10 13 10 7 12 8 9 6 9 7 16 17 17 14 16 14 11
5 17 20 6 10 26 15 -4 12 25 9 9 10 10 8 6 4 4 3 4 7 6 6 5 9 9 10 9 11 10 5 10 10 9 12 8 5 15 14 10 11 17 18 13 8
9 5 16 19 -8 2 8 17 15 10 11 9 6 10 7 5 2 5 12 10 5 7 4 6 11 13 11 12 9 8 8 11 11 3 10 13 10 21 11 15 15 17 8 9 14
18 14 13 10 12 11 11 14 14 13 4 8 7 5 9 11 9 7 7 6 8 4 9 18 10 8 10 6 7 11 11 18 15 10 18 1 -9 4 19 15 15 4 -3 4 12
21 4 11 12 1 -3 7 10 9 4 5 3 7 8 9 7 10 9 9 8 13 18 12 12 4 8 14 12 12 15 20 16 6 8 -3 7 2 4 16 2 8 5 3 6 6
21 14 4 13 6 15 11 8 5 6 4 5 5 9 9 9 12 8 6 13 10 10 8 7 5 5 5 7 -1 -6 2 -3 -1 6 9 4 8 8 21 6 16 9 12 8 8
-4 19 13 13 10 4 8 13 10 8 7 10 13 11 19 11 9 11 11 5 6 8 6 4 5 17 7 0 7 4 6 14 6 6 11 4 10 14 4 13 -0 4 6 2 13
20 -2 6 -6 -2 12 29 19 11 14 8 9 8 6 13 12 8 4 6 4 2 5 5 11 9 5 2 4 6 11 7 1 3 9 17 9 3 -5 6 -7 -3 8 4 3 12
15 5 22 18 12 10 5 -2 16 20 16 16 20 14 13 9 7 10 7 8 10 8 6 10 4 9 7 13 7 3 7 6 5 11 8 10 18 11 20 7 13 8 10 3 13
Height
5805 5808 5808 5810 5812 5815 5816 5818 5819 5821 5822 5823 5823 5823 5824 5824 5825 5826 5826 5827 5828 5826 5826 5826 5826 5826 5825 5825 5826 5827 5828 5827 5827 5826 5825 5825 5824 5823 5824 5827 5826 5825 5827 5828 5827
5794 5798 5799 5801 5803 5805 5806 5809 5810 5812 5813 5815 5815 5815 5816 5817 5817 5818 5820 5820 5820 5820 5820 5819 5819 5820 5820 5820 5820 5822 5824 5824 5823 5822 5822 5820 5819 5820 5821 5823 5819 5819 5820 5822 5824
5783 5786 5788 5792 5794 5795 5797 5798 5801 5802 5804 5806 5807 5807 5807 5809 5809 5809 5811 5812 5812 5813 5813 5812 5812 5813 5814 5815 5815 5816 5818 5818 5820 5818 5817 5816 5815 5815 5818 5817 5813 5814 5815 5814 5816
5773 5776 5779 5781 5783 5786 5787 5788 5790 5793 5794 5796 5797 5799 5799 5801 5803 5802 5804 5804 5804 5805 5806 5806 5806 5806 5807 5808 5809 5809 5810 5812 5813 5812 5812 5810 5812 5810 5812 5811 5810 5809 5810 5807 5805
5762 5765 5767 5770 5772 5776 5777 5779 5780 5782 5785 5787 5788 5790 5792 5793 5792 5794 5796 5796 5797 5797 5798 5799 5799 5799 5800 5801 5801 5802 5803 5804 5804 5804 5804 5803 5804 5803 5803 5803 5804 5803 5802 5801 5800
5750 5753 5756 5759 5760 5763 5767 5769 5771 5773 5775 5778 5780 5781 5784 5786 5785 5786 5786 5788 5789 5789 5790 5790 5791 5792 5793 5793 5793 5795 5795 5795 5795 5794 5794 5796 5796 5793 5794 5795 5795 5795 5793 5792 5792
5738 5741 5745 5748 5750 5751 5756 5758 5761 5763 5766 5767 5771 5772 5775 5775 5777 5777 5778 5779 5780 5781 5781 5782 5783 5784 5785 5785 5785 5785 5786 5785 5785 5785 5785 5784 5784 5784 5784 5784 5784 5785 5784 5784 5782
5726 5729 5734 5737 5740 5740 5744 5748 5750 5753 5755 5757 5760 5762 5765 5765 5766 5769 5770 5770 5771 5772 5772 5774 5775 5775 5777 5777 5777 5777 5775 5775 5776 5777 5775 5774 5773 5773 5773 5773 5773 5773 5773 5772 5773
5712 5717 5720 5724 5728 5729 5733 5736 5740 5743 5744 5746 5750 5751 5753 5755 5756 5758 5759 5761 5761 5763 5763 5764 5765 5766 5767 5769 5768 5767 5765 5765 5765 5766 5764 5762 5763 5762 5760 5760 5761 5763 5763 5762 5762
5699 5704 5707 5712 5715 5717 5721 5724 5728 5730 5734 5735 5738 5741 5742 5746 5747 5747 5749 5750 5751 5752 5753 5755 5755 5756 5759 5758 5757 5758 5758 5756 5755 5755 5751 5752 5750 5748 5749 5750 5751 5750 5751 5751 5749
5684 5689 5693 5698 5701 5704 5709 5711 5717 5720 5722 5726 5728 5729 5731 5736 5736 5737 5738 5740 5741 5742 5744 5745 5746 5749 5747 5747 5748 5748 5747 5746 5746 5743 5743 5744 5741 5741 5740 5740 5739 5739 5738 5738 5737
5668 5673 5678 5684 5688 5691 5696 5699 5702 5708 5712 5714 5717 5720 5721 5723 5724 5726 5728 5731 5732 5734 5735 5737 5736 5736 5737 5737 5737 5737 5736 5737 5735 5733 5733 5732 5731 5731 5731 5731 5730 5727 5725 5725 5724
5653 5658 5664 5668 5674 5677 5682 5685 5690 5693 5698 5706 5706 5710 5712 5711 5714 5717 5718 5721 5724 5725 5726 5725 5726 5727 5727 5726 5727 5726 5726 5726 5725 5725 5723 5721 5718 5720 5721 5720 5717 5715 5713 5712 5711
5635 5642 5648 5654 5660 5662 5667 5672 5678 5681 5685 5693 5697 5697 5700 5701 5703 5706 5709 5713 5714 5715 5715 5714 5718 5716 5716 5717 5716 5716 5716 5715 5716 5715 5714 5713 5710 5710 5709 5707 5705 5701 5698 5696 5695
5616 5625 5632 5637 5643 5644 5651 5655 5662 5669 5673 5680 5683 5688 5687 5690 5695 5696 5698 5700 5704 5703 5704 5706 5706 5706 5707 5706 5704 5706 5705 5705 5705 5704 5704 5704 5701 5703 5700 5698 5695 5691 5687 5683 5682
5598 5605 5613 5619 5624 5625 5632 5638 5645 5653 5660 5666 5670 5674 5676 5678 5681 5684 5688 5689 5693 5693 5694 5695 5695 5696 5696 5695 5695 5694 5693 5693 5692 5692 5695 5694 5691 5696 5692 5687 5682 5679 5675 5672 5670
5577 5586 5597 5602 5600 5605 5614 5618 5627 5638 5649 5654 5658 5659 5661 5665 5669 5672 5676 5678 5680 5684 5684 5683 5683 5684 5685 5685 5684 5683 5681 5679 5681 5681 5682 5681 5679 5684 5683 5677 5671 5667 5663 5660 5658
5560 5568 5578 5584 5580 5587 5592 5597 5609 5632 5634 5639 5642 5646 5649 5651 5656 5659 5662 5666 5668 5669 5671 5672 5674 5673 5674 5673 5672 5671 5670 5669 5668 5667 5667 5667 5669 5673 5670 5664 5659 5655 5652 5650 5648
5541 5555 5563 5567 5563 5569 5571 5577 5605 5619 5619 5623 5627 5631 5636 5639 5642 5646 5648 5652 5655 5658 5659 5659 5659 5660 5661 5661 5662 5663 5661 5660 5657 5656 5654 5655 5659 5661 5658 5652 5649 5646 5644 5640 5638
5527 5537 5551 5546 5548 5552 5553 5572 5595 5601 5603 5605 5612 5617 5624 5629 5628 5633 5634 5640 5644 5646 5645 5647 5646 5647 5648 5649 5649 5651 5651 5650 5647 5645 5641 5643 5646 5647 5648 5643 5641 5638 5636 5633 5630
5510 5522 5534 5529 5533 5534 5539 5572 5583 5587 5589 5593 5599 5604 5612 5616 5617 5620 5623 5628 5631 5633 5634 5634 5635 5637 5637 5640 5640 5638 5639 5638 5636 5635 5633 5632 5636 5637 5635 5634 5632 5630 5627 5626 5624
5495 5505 5516 5514 5514 5518 5535 5566 5569 5571 5573 5578 5585 5593 5600 5603 5604 5607 5612 5616 5619 5621 5621 5622 5623 5624 5627 5628 5628 5627 5628 5628 5625 5627 5625 5621 5628 5628 5627 5625 5624 5622 5619 5618 5616
5480 5493 5499 5498 5498 5508 5530 5544 5549 5557 5558 5564 5573 5580 5586 5590 5591 5595 5599 5603 5605 5607 5609 5612 5613 5614 5615 5617 5617 5618 5619 5618 5618 5617 5617 5613 5617 5619 5618 5616 5614 5613 5610 5609 5607
5464 5474 5480 5482 5490 5501 5516 5527 5534 5542 5546 5553 5560 5565 5571 5575 5579 5583 5588 5590 5594 5596 5599 5600 5601 5603 5605 5607 5607 5607 5609 5609 5607 5605 5606 5606 5608 5610 5610 5608 5606 5603 5602 5601 5599
5452 5457 5469 5474 5483 5493 5502 5515 5522 5530 5534 5538 5544 5552 5557 5561 5566 5569 5573 5578 5582 5584 5586 5588 5587 5589 5594 5595 5594 5595 5598 5598 5595 5596 5593 5602 5598 5600 5600 5598 5597 5595 5594 5593 5591
5442 5449 5460 5469 5477 5484 5490 5500 5510 5520 5521 5528 5535 5542 5544 5548 5553 5558 5560 5563 5567 5571 5574 5577 5577 5577 5580 5582 5581 5581 5585 5586 5585 5587 5585 5588 5588 5590 5590 5588 5586 5585 5586 5585 5583
5432 5441 5449 5457 5463 5469 5480 5495 5504 5506 5511 5516 5523 5526 5531 5540 5539 5542 5546 5550 5555 5559 5562 5564 5567 5568 5569 5571 5569 5566 5578 5577 5575 5576 5577 5575 5579 5577 5578 5578 5577 5576 5577 5575 5575